Regional Weather Roundup
Issued by NWS

Home | Current Version | Previous Version | Graphics & Text | Print | Product List | Glossary On
Versions: 1 2 3 4 5 6 7 8 9 10 11 12 13 14 15 16 17 18 19 20 21 22 23 24 25 26 27 28 29 30 31 32 33 34 35 36 37 38 39 40 41 42 43 44 45 46 47 48 49 50
000
ASUS43 KFSD 040702
RWRSD

WEATHER ROUNDUP FOR SOUTH DAKOTA
NATIONAL WEATHER SERVICE SIOUX FALLS SD
100 AM CST SUN DEC 04 2016

NOTE: "FAIR" INDICATES FEW OR NO CLOUDS BELOW 12,000 FEET WITH NO
SIGNIFICANT WEATHER AND/OR OBSTRUCTIONS TO VISIBILITY.


SDZ001>005-009-010-012>017-040800-
NORTHWEST AND NORTH CENTRAL SOUTH DAKOTA

CITY           SKY/WX    TMP DP  RH WIND       PRES   REMARKS
BUFFALO          N/A     28  23  81 W13       29.79S WCI  17
FAITH            N/A     32  27  81 W17       29.85S WCI  21
MOBRIDGE       CLOUDY    34  28  79 NW9       29.80F WCI  27
$$

SDZ012>016-024>037-041>051-057-063-072>074-040800-
SOUTHWEST AND SOUTH CENTRAL SOUTH DAKOTA

CITY           SKY/WX    TMP DP  RH WIND       PRES   REMARKS
RAPID CTY ARPT CLEAR     31  22  69 W10       29.92S WCI  22
PIERRE         MOCLDY    32  24  72 W12       29.87F WCI  23
CUSTER         CLEAR     22  16  78 SW5       29.89F WCI  16
ELLSWORTH AFB  CLEAR     28  22  79 W12       29.90F WCI  18
PHILIP         PTCLDY    28  23  81 W8        29.91F WCI  20
PINE RIDGE     CLOUDY    28  20  71 W6        29.96S WCI  22
SPEARFISH      CLOUDY    36  23  60 W9        29.91S
WINNER         FAIR      31  22  69 SW7       29.91F WCI  24
$$

SDZ004>011-016>023-039-040-040800-
NORTHEAST SOUTH DAKOTA

CITY           SKY/WX    TMP DP  RH WIND       PRES   REMARKS
ABERDEEN       CLOUDY    31  29  92 S9        29.86F WCI  23
WATERTOWN      CLOUDY    32  32 100 S14G24    29.89F FOG     WCI  22
BROOKINGS      CLOUDY    32  30  93 S20       29.94S FOG     WCI  20
SISSETON         N/A     35  32  88 S14       29.89F WCI  26
$$

SDZ017-020-022-023-036>040-048>070-040800-
SOUTHEAST SOUTH DAKOTA

CITY           SKY/WX    TMP DP  RH WIND       PRES   REMARKS
SIOUX FALLS    CLOUDY    34  33  96 S13       29.97F FOG     WCI  25
HURON          MOCLDY    31  31 100 S9        29.90F WCI  23
CHAMBERLAIN    PTCLDY    27  24  87 SW5       29.90F WCI  22
MITCHELL       PTCLDY    33  31  92 S9        29.93F WCI  25
YANKTON        CLOUDY    36  30  80 S10       29.97F
$$

ABBREVIATIONS USED IN REMARKS
   TC - TEMPERATURE IN CELSIUS
  WCI - WIND CHILL INDEX
   HX - HEAT INDEX
  VSB - VISIBILITY




USA.gov is the U.S. government's official web portal to all federal, state and local government web resources and services.